Iowa City, IA

10:19 PM CDT on July 25, 2017 (GMT -0500)
Iowa City Municipal

Weather History for KIOW - December, 2013

Change the Weather History Date:

Friday, December 13, 2013

  Actual Average Record
Temperature  
Mean Temperature 17 °F 26 °F  
Max Temperature 28 °F 33 °F 63 °F (2015)
Min Temperature 6 °F 18 °F -16 °F (1961)
Degree Days  
Heating Degree Days 48 39  
Month to date heating degree days 590 481  
Since 1 July heating degree days 1958 1788  
Cooling Degree Days 0 0  
Month to date cooling degree days 0 0  
Year to date cooling degree days 1064 912  
Moisture  
Dew Point 17 °F    
Average Humidity 80    
Maximum Humidity 92    
Minimum Humidity 68    
Precipitation  
Precipitation 0.00 in 0.06 in 1.59 in (2015)
Month to date precipitation 0.16 0.84  
Year to date precipitation 34.58 35.60  
Sea Level Pressure  
Sea Level Pressure 30.10 in    
Wind  
Wind Speed 6 mph (ENE)    
Max Wind Speed 16 mph    
Max Gust Speed 22 mph    
Visibility 7 miles    
Events      
T = Trace of Precipitation, MM = Missing Value Source: NWS Daily Summary

Daily Weather History Graph

Daily Weather History Graph

Search for Another Location

Airport or City:

Trip Planner

Search our weather history database for the weather conditions in past years. The results will help you decide how hot, cold, wet, or windy it might be!

Date:

Astronomy

Dec. 13, 2013 Rise Set
Actual Time 7:24 AM CST 4:36 PM CST
Civil Twilight 6:53 AM CST 5:07 PM CST
Nautical Twilight 6:18 AM CST 5:42 PM CST
Astronomical Twilight 5:44 AM CST 6:16 PM CST
Moon 2:21 PM CST (12/13) 3:45 AM CST (12/13)
Length of Visible Light 10h 14m
Length of Day
9h 11m
Waxing Gibbous, 88% of the Moon is Illuminated
Dec 13
Waxing Gibbous
Dec 17
Full
Dec 25
Last Quarter
Jan 1
New
Jan 7
First Quarter

Hourly Weather History & Observations

Time (CST) Temp. Windchill Dew Point Humidity Pressure Visibility Wind Dir Wind Speed Gust Speed Precip Events Conditions
12:52 AM 8.1 °F - 5.0 °F 87% 30.21 in 7.0 mi Calm Calm - N/A   Clear
1:52 AM 9.0 °F - 6.1 °F 88% 30.20 in 8.0 mi Calm Calm - N/A   Clear
2:52 AM 7.0 °F - 5.0 °F 92% 30.18 in 7.0 mi Calm Calm - N/A   Clear
3:52 AM 8.1 °F - 5.0 °F 87% 30.16 in 6.0 mi Calm Calm - N/A   Clear
4:52 AM 12.0 °F - 9.0 °F 88% 30.14 in 9.0 mi Calm Calm - N/A   Clear
5:52 AM 10.9 °F - 8.1 °F 88% 30.14 in 8.0 mi Calm Calm - N/A   Clear
6:52 AM 10.9 °F - 7.0 °F 84% 30.15 in 8.0 mi Calm Calm - N/A   Clear
7:52 AM 10.9 °F - 8.1 °F 88% 30.14 in 5.0 mi Calm Calm - N/A   Clear
8:52 AM 17.1 °F - 15.1 °F 92% 30.13 in 7.0 mi Calm Calm - N/A   Clear
9:52 AM 21.9 °F 17.2 °F 18.0 °F 85% 30.14 in 9.0 mi ESE 3.5 mph - N/A   Clear
10:52 AM 26.1 °F 20.5 °F 19.9 °F 78% 30.13 in 8.0 mi ENE 4.6 mph - N/A   Clear
11:52 AM 27.0 °F 21.6 °F 21.0 °F 78% 30.09 in 7.0 mi East 4.6 mph - N/A   Clear
12:52 PM 28.0 °F 21.7 °F 21.0 °F 75% 30.07 in 7.0 mi East 5.8 mph - N/A   Clear
1:52 PM 28.0 °F 20.0 °F 21.0 °F 75% 30.06 in 7.0 mi ENE 8.1 mph - N/A   Clear
2:52 PM 27.0 °F 16.1 °F 19.9 °F 75% 30.06 in 8.0 mi NE 12.7 mph - N/A   Clear
3:52 PM 26.1 °F 16.8 °F 19.0 °F 75% 30.07 in 8.0 mi NE 9.2 mph - N/A   Clear
4:52 PM 26.1 °F 16.2 °F 19.0 °F 75% 30.07 in 10.0 mi ENE 10.4 mph - N/A   Overcast
5:52 PM 26.1 °F 15.6 °F 18.0 °F 71% 30.07 in 10.0 mi ENE 11.5 mph - N/A   Overcast
6:52 PM 26.1 °F 16.8 °F 19.0 °F 75% 30.09 in 9.0 mi ENE 9.2 mph - N/A   Overcast
7:17 PM 26.6 °F 16.2 °F 19.4 °F 74% 30.05 in 9.0 mi ENE 11.5 mph - N/A   Overcast
7:52 PM 26.1 °F 16.2 °F 19.0 °F 75% 30.09 in 9.0 mi ENE 10.4 mph - N/A   Overcast
8:10 PM 26.6 °F 16.8 °F 19.4 °F 74% 30.06 in 9.0 mi ENE 10.4 mph - N/A   Overcast
8:18 PM 26.6 °F 16.2 °F 19.4 °F 74% 30.06 in 9.0 mi NE 11.5 mph - N/A   Overcast
8:52 PM 26.1 °F 15.6 °F 19.9 °F 78% 30.09 in 8.0 mi NE 11.5 mph - N/A   Overcast
9:52 PM 26.1 °F 15.0 °F 21.9 °F 84% 30.09 in 4.0 mi ENE 12.7 mph 19.6 mph N/A   Overcast
10:28 PM 26.6 °F 15.2 °F 24.8 °F 93% 30.06 in 3.0 mi ENE 13.8 mph - N/A   Overcast
10:38 PM 26.6 °F 16.2 °F 24.8 °F 93% 30.06 in 3.0 mi NE 11.5 mph - N/A   Overcast
10:49 PM 26.6 °F 16.2 °F 24.8 °F 93% 30.06 in 3.0 mi NE 11.5 mph - N/A   Overcast
10:52 PM 26.1 °F 14.0 °F 24.1 °F 92% 30.09 in 4.0 mi NE 15.0 mph - N/A   Overcast
11:52 PM 26.1 °F 14.0 °F 23.0 °F 88% 30.09 in 6.0 mi ENE 15.0 mph - N/A   Overcast